CW5586 Weather Reports


time (UTC)temp
F
wind
direction
speed
knots
gust
knots
rain 1hr
in
rain 24hr
in
rain mn
in
humidity
%
barometer
mb
20260507054604 41 0 0.0 1.7 0.00 0.00 0.00 78 1015.2
20260507051104 39 0 0.0 0.0 0.00 0.00 0.00 86 1014.9
20260507050604 38 0 0.0 0.0 0.00 0.00 0.00 86 1014.9
20260507050115 37 0 0.0 0.0 0.00 0.00 0.00 87 1014.8
20260507044604 36 0 0.0 0.0 0.00 0.00 0.00 91 1014.6
20260507041104 31 0 0.0 0.9 0.00 0.00 0.00 89 1014.5
20260507040114 31 0 0.0 1.7 0.00 0.00 0.00 88 1014.4
20260507034605 31 352 0.9 0.9 0.00 0.00 0.00 87 1014.4
20260507034104 31 0 0.0 0.0 0.00 0.00 0.00 87 1014.3
20260507033103 31 0 0.0 1.7 0.00 0.00 0.00 85 1014.4
20260507031104 32 0 0.0 0.0 0.00 0.00 0.00 87 1014.4
20260507030115 32 0 0.0 0.9 0.00 0.00 0.00 89 1014.3
20260507024604 31 0 0.0 1.7 0.00 0.00 0.00 88 1014.1
20260507023604 31 352 0.9 0.9 0.00 0.00 0.00 87 1014.0
20260507023104 31 351 0.9 1.7 0.00 0.00 0.00 86 1014.0
20260507020604 31 352 0.9 1.7 0.00 0.00 0.00 85 1013.9
20260507020115 32 0 0.0 1.7 0.00 0.00 0.00 85 1014.0
20260507014105 32 351 0.0 1.7 0.00 0.00 0.00 85 1013.9
20260507013104 33 0 0.0 0.9 0.00 0.00 0.00 85 1013.9
20260507011604 32 351 0.9 0.9 0.00 0.00 0.00 85 1013.8
20260507010604 33 351 0.0 0.9 0.00 0.00 0.00 85 1013.7
20260507001103 35 0 0.0 1.7 0.00 0.00 0.00 79 1013.3
20260507000602 35 290 0.0 1.7 0.00 0.00 0.00 79 1013.3
20260506234102 37 0 0.0 1.7 0.00 0.00 0.00 73 1013.3
20260506233604 37 0 0.0 1.7 0.00 0.00 0.00 72 1013.1
20260506233104 38 0 0.0 1.7 0.00 0.00 0.00 71 1013.2
20260506231603 39 0 0.0 1.7 0.00 0.00 0.00 69 1013.1
20260506231103 39 0 0.0 1.7 0.00 0.00 0.00 69 1013.0
20260506230114 40 0 0.0 1.7 0.00 0.00 0.00 70 1012.9
20260506224604 41 280 0.9 1.7 0.00 0.00 0.00 66 1012.9
20260506224103 41 311 0.0 0.9 0.00 0.00 0.00 67 1012.9
20260506223603 41 311 0.0 1.7 0.00 0.00 0.00 66 1012.9
20260506223104 41 0 0.0 1.7 0.00 0.00 0.00 65 1012.9
20260506220604 42 326 0.0 2.6 0.00 0.00 0.00 63 1012.8
20260506214603 43 316 0.9 1.7 0.00 0.00 0.00 60 1012.6
20260506211103 43 283 0.9 4.3 0.00 0.00 0.00 59 1012.2
20260506210604 43 251 1.7 2.6 0.00 0.00 0.00 60 1012.2
20260506210114 43 262 1.7 2.6 0.00 0.00 0.00 60 1012.2
20260506204603 42 0 0.0 0.0 0.00 0.00 0.00 63 1012.2
20260506201604 44 352 0.9 0.9 0.00 0.00 0.00 58 1012.2
20260506200603 45 0 0.0 1.7 0.00 0.00 0.00 56 1012.2
20260506193104 48 340 0.0 2.6 0.00 0.00 0.00 49 1012.2
20260506191604 49 288 1.7 1.7 0.00 0.00 0.00 46 1011.9
20260506190114 50 326 0.0 2.6 0.00 0.00 0.00 45 1011.8
20260506183604 52 292 0.9 5.2 0.00 0.00 0.00 40 1011.5
20260506181604 53 298 1.7 6.1 0.00 0.00 0.00 40 1011.4
20260506181103 53 267 1.7 7.0 0.00 0.00 0.00 39 1011.3
20260506180603 53 281 4.3 8.7 0.00 0.00 0.00 38 1011.4
20260506180113 54 284 0.9 8.7 0.00 0.00 0.00 38 1011.4
20260506174103 55 285 2.6 10.4 0.00 0.00 0.00 35 1011.2
20260506171603 55 292 0.9 7.8 0.00 0.00 0.00 35 1011.1
20260506170115 56 333 5.2 10.4 0.00 0.00 0.00 35 1011.1
20260506163603 56 253 6.1 8.7 0.00 0.00 0.00 32 1011.0
20260506160604 57 326 4.3 12.2 0.00 0.00 0.00 31 1010.9
20260506160114 57 275 2.6 12.2 0.00 0.00 0.00 31 1010.9
20260506154103 57 294 7.0 7.0 0.00 0.00 0.00 30 1010.9
20260506153603 57 291 2.6 7.0 0.00 0.00 0.00 31 1010.9
20260506153103 57 282 2.6 10.4 0.00 0.00 0.00 30 1010.9
20260506151604 58 277 1.7 7.0 0.00 0.00 0.00 29 1011.0
20260506151103 58 277 4.3 7.8 0.00 0.00 0.00 29 1010.9
20260506150603 57 279 4.3 7.8 0.00 0.00 0.00 29 1010.9
20260506144603 57 247 6.1 11.3 0.00 0.00 0.00 29 1011.0
20260506144103 57 234 0.9 11.3 0.00 0.00 0.00 28 1011.1
20260506143104 56 263 1.7 13.0 0.00 0.00 0.00 29 1011.0
20260506140114 57 300 0.9 11.3 0.00 0.00 0.00 30 1011.1
20260506134604 57 268 6.1 11.3 0.00 0.00 0.00 29 1011.1
20260506134104 58 230 7.0 11.3 0.00 0.00 0.00 29 1011.1
20260506130114 57 288 5.2 11.3 0.00 0.00 0.00 30 1011.1
20260506124604 58 291 2.6 7.8 0.00 0.00 0.00 23 1011.1
20260506123103 58 292 2.6 7.0 0.00 0.00 0.00 25 1011.2
20260506114603 58 225 4.3 7.8 0.00 0.00 0.00 24 1011.4
20260506114103 58 219 4.3 7.8 0.00 0.00 0.00 24 1011.4
20260506113603 58 190 2.6 7.8 0.00 0.00 0.00 24 1011.4
20260506110604 59 242 2.6 2.6 0.00 0.00 0.00 24 1011.6
20260506110114 58 24 0.9 6.1 0.00 0.00 0.00 25 1011.6
20260506104603 57 147 2.6 7.0 0.00 0.00 0.00 25 1011.7
20260506104103 56 242 0.9 7.0 0.00 0.00 0.00 25 1011.8
20260506101603 57 189 2.6 7.0 0.00 0.00 0.00 25 1011.9
20260506101103 57 300 1.7 7.0 0.00 0.00 0.00 26 1012.0
20260506100115 56 161 2.6 7.0 0.00 0.00 0.00 28 1012.0
20260506094104 56 180 1.7 7.0 0.00 0.00 0.00 29 1012.2
20260506093103 55 164 6.1 6.1 0.00 0.00 0.00 29 1012.1
20260506091603 54 246 0.9 6.1 0.00 0.00 0.00 29 1012.2
20260506090114 54 217 0.9 7.0 0.00 0.00 0.00 29 1012.2
20260506084604 54 158 2.6 7.0 0.00 0.00 0.00 29 1012.3
20260506084103 53 74 4.3 7.8 0.00 0.00 0.00 28 1012.3
20260506083604 53 146 2.6 7.8 0.00 0.00 0.00 28 1012.3
20260506071103 50 281 0.0 2.6 0.00 0.00 0.00 47 1012.3